Date,TemperatureHighF,TemperatureAvgF,TemperatureLowF,DewpointHighF,DewpointAvgF,DewpointLowF,HumidityHigh,HumidityAvg,HumidityLow,PressureMaxIn,PressureMinIn,WindSpeedMaxMPH,WindSpeedAvgMPH,GustSpeedMaxMPH,PrecipitationSumIn
2013-2-1,47.7,42.4,36.0,42.0,38.2,32.1,94,85,73,29.93,29.51,22,4,22,0.19
2013-2-2,43.0,39.0,29.1,38.4,29.9,22.5,95,70,55,30.34,29.67,22,6,22,0.00
2013-2-3,49.8,41.5,28.0,45.8,36.1,20.5,88,81,71,30.36,29.97,18,5,18,0.00
2013-2-4,51.8,48.5,43.5,46.1,38.8,32.1,86,70,50,30.03,29.80,32,11,32,0.00
2013-2-5,44.8,40.7,36.3,37.8,31.2,23.6,93,70,45,29.80,29.40,30,12,30,0.04
2013-2-6,43.5,40.6,36.1,38.6,32.3,24.4,90,72,61,30.14,29.44,26,9,27,0.11
2013-2-7,42.6,37.4,32.9,35.8,28.9,23.7,90,72,59,30.19,30.03,15,5,15,0.02
2013-2-8,43.3,37.9,30.4,36.3,31.8,27.5,94,79,56,30.23,30.10,26,3,26,0.00
2013-2-9,40.3,37.7,33.8,36.4,33.4,28.6,90,84,75,30.25,29.93,15,2,15,0.02
2013-2-10,42.3,39.1,34.5,39.7,36.4,31.3,95,90,86,29.93,29.34,27,8,27,0.40
2013-2-11,36.9,35.1,33.6,33.9,31.8,31.0,91,87,83,29.83,29.36,14,3,14,0.15
2013-2-12,37.6,35.9,34.9,31.9,27.7,23.8,87,72,61,30.22,29.83,17,3,17,0.00
2013-2-13,40.5,35.8,34.2,38.3,27.4,20.4,92,72,55,30.30,30.06,27,8,27,0.00
2013-2-14,53.2,46.6,38.8,47.5,41.0,35.3,96,82,60,30.07,29.81,30,8,30,0.04
2013-2-15,51.6,41.4,32.2,39.2,34.7,29.3,95,78,46,30.29,30.05,15,2,15,0.00
2013-2-16,52.5,42.9,32.0,39.8,34.4,27.4,90,74,43,30.31,30.25,9,1,9,0.00
2013-2-17,51.1,39.3,28.2,41.2,32.3,23.5,96,78,44,30.30,30.16,20,4,20,0.00
2013-2-18,50.5,39.6,29.3,37.2,32.3,24.9,93,76,48,30.22,30.16,18,3,18,0.00
2013-2-19,59.2,36.4,24.4,36.7,27.8,20.1,88,72,38,30.22,30.12,8,1,8,0.00
2013-2-20,43.0,38.3,34.9,38.6,30.8,23.8,96,76,57,30.34,30.18,24,8,24,0.01
2013-2-21,37.0,35.0,33.1,24.0,19.7,16.4,61,53,45,30.36,30.24,26,9,26,0.00
2013-2-22,36.7,34.4,33.3,23.3,20.1,16.9,64,56,49,30.24,30.16,20,7,20,0.00
2013-2-23,37.0,34.7,33.1,25.1,21.9,18.2,69,60,48,30.29,30.17,20,6,20,0.00
2013-2-24,36.7,35.1,33.6,26.6,24.6,23.1,74,66,58,30.35,30.28,18,7,18,0.04
2013-2-25,40.6,38.4,35.1,35.5,32.3,25.4,86,79,66,30.46,30.34,23,7,23,0.00
2013-2-26,41.7,39.7,37.4,39.1,37.1,34.1,95,90,85,30.64,30.45,18,6,18,0.01
2013-2-27,45.7,39.5,36.5,36.9,33.3,31.5,90,79,60,30.66,30.55,20,6,20,0.00
2013-2-28,46.9,40.6,35.4,36.3,33.9,30.3,86,77,66,30.57,30.41,20,6,20,0.00